Year,Month,Day,Hour,Minute,Value (Times are PST for temperature in C)
2008,08,16,00,00,18.50
2008,08,16,00,01,18.50
2008,08,16,00,02,18.50
2008,08,16,00,03,18.50
2008,08,16,00,04,18.40
2008,08,16,00,05,18.40
2008,08,16,00,06,18.40
2008,08,16,00,07,18.40
2008,08,16,00,08,18.40
2008,08,16,00,09,18.40
2008,08,16,00,10,18.40
2008,08,16,00,11,18.40
2008,08,16,00,12,18.40
2008,08,16,00,13,18.40
2008,08,16,00,14,18.40
2008,08,16,00,15,18.40
2008,08,16,00,16,18.40
2008,08,16,00,17,18.40
2008,08,16,00,18,18.40
2008,08,16,00,19,18.40
2008,08,16,00,20,18.40
2008,08,16,00,21,18.40
2008,08,16,00,22,18.30
2008,08,16,00,23,18.30
2008,08,16,00,24,18.30
2008,08,16,00,25,18.30
2008,08,16,00,26,18.30
2008,08,16,00,27,18.30
2008,08,16,00,28,18.30
2008,08,16,00,29,18.40
2008,08,16,00,30,18.40
2008,08,16,00,31,18.40
2008,08,16,00,32,18.40
2008,08,16,00,33,18.40
2008,08,16,00,34,18.40
2008,08,16,00,35,18.40
2008,08,16,00,36,18.40
2008,08,16,00,37,18.40
2008,08,16,00,38,18.30
2008,08,16,00,39,18.30
2008,08,16,00,40,18.30
2008,08,16,00,41,18.20
2008,08,16,00,42,18.20
2008,08,16,00,43,18.20
2008,08,16,00,44,18.20
2008,08,16,00,45,18.20
2008,08,16,00,46,18.20
2008,08,16,00,47,18.20
2008,08,16,00,48,18.20
2008,08,16,00,49,18.20
2008,08,16,00,50,18.20
2008,08,16,00,51,18.20
2008,08,16,00,52,18.20
2008,08,16,00,53,18.20
2008,08,16,00,54,18.20
2008,08,16,00,55,18.20
2008,08,16,00,56,18.20
2008,08,16,00,57,18.20
2008,08,16,00,58,18.20
2008,08,16,00,59,18.20
2008,08,16,01,00,18.30
2008,08,16,01,01,18.20
2008,08,16,01,02,18.20
2008,08,16,01,03,18.20
2008,08,16,01,04,18.20
2008,08,16,01,05,18.20
2008,08,16,01,06,18.20
2008,08,16,01,07,18.20
2008,08,16,01,08,18.20
2008,08,16,01,09,18.20
2008,08,16,01,10,18.20
2008,08,16,01,11,18.20
2008,08,16,01,12,18.10
2008,08,16,01,13,18.10
2008,08,16,01,14,18.10
2008,08,16,01,15,18.10
2008,08,16,01,16,18.00
2008,08,16,01,17,17.90
2008,08,16,01,18,17.90
2008,08,16,01,19,17.90
2008,08,16,01,20,17.90
2008,08,16,01,21,17.90
2008,08,16,01,22,17.90
2008,08,16,01,23,17.80
2008,08,16,01,24,17.80
2008,08,16,01,25,17.70
2008,08,16,01,26,17.70
2008,08,16,01,27,17.70
2008,08,16,01,28,17.70
2008,08,16,01,29,17.60
2008,08,16,01,30,17.60
2008,08,16,01,31,17.60
2008,08,16,01,32,17.50
2008,08,16,01,33,17.50
2008,08,16,01,34,17.50
2008,08,16,01,35,17.50
2008,08,16,01,36,17.50
2008,08,16,01,37,17.40
2008,08,16,01,38,17.40
2008,08,16,01,39,17.40
2008,08,16,01,40,17.40
2008,08,16,01,41,17.40
2008,08,16,01,42,17.40
2008,08,16,01,43,17.40
2008,08,16,01,44,17.40
2008,08,16,01,45,17.40
2008,08,16,01,46,17.40
2008,08,16,01,47,17.30
2008,08,16,01,48,17.30
2008,08,16,01,49,17.30
2008,08,16,01,50,17.30
2008,08,16,01,51,17.30
2008,08,16,01,52,17.30
2008,08,16,01,53,17.20
2008,08,16,01,54,17.20
2008,08,16,01,55,17.20
2008,08,16,01,56,17.20
2008,08,16,01,57,17.20
2008,08,16,01,58,17.20
2008,08,16,01,59,17.10
2008,08,16,02,00,17.10
2008,08,16,02,01,17.10
2008,08,16,02,02,17.10
2008,08,16,02,03,17.10
2008,08,16,02,04,17.10
2008,08,16,02,05,17.10
2008,08,16,02,06,17.10
2008,08,16,02,07,17.10
2008,08,16,02,08,17.10
2008,08,16,02,09,17.10
2008,08,16,02,10,17.10
2008,08,16,02,11,17.10
2008,08,16,02,12,17.10
2008,08,16,02,13,17.00
2008,08,16,02,14,17.00
2008,08,16,02,15,17.00
2008,08,16,02,16,17.00
2008,08,16,02,17,17.00
2008,08,16,02,18,17.00
2008,08,16,02,19,17.00
2008,08,16,02,20,17.00
2008,08,16,02,21,17.00
2008,08,16,02,22,16.90
2008,08,16,02,23,16.90
2008,08,16,02,24,16.90
2008,08,16,02,25,16.80
2008,08,16,02,26,16.80
2008,08,16,02,27,16.80
2008,08,16,02,28,16.80
2008,08,16,02,29,16.80
2008,08,16,02,30,16.80
2008,08,16,02,31,16.80
2008,08,16,02,32,16.80
2008,08,16,02,33,16.80
2008,08,16,02,34,16.80
2008,08,16,02,35,16.80
2008,08,16,02,36,16.80
2008,08,16,02,37,16.70
2008,08,16,02,38,16.70
2008,08,16,02,39,16.70
2008,08,16,02,40,16.70
2008,08,16,02,41,16.70
2008,08,16,02,42,16.70
2008,08,16,02,43,16.70
2008,08,16,02,44,16.70
2008,08,16,02,45,16.70
2008,08,16,02,46,16.70
2008,08,16,02,47,16.70
2008,08,16,02,48,16.70
2008,08,16,02,49,16.70
2008,08,16,02,50,16.70
2008,08,16,02,51,16.70
2008,08,16,02,52,16.70
2008,08,16,02,53,16.70
2008,08,16,02,54,16.70
2008,08,16,02,55,16.70
2008,08,16,02,56,16.70
2008,08,16,02,57,16.70
2008,08,16,02,58,16.70
2008,08,16,02,59,16.70
2008,08,16,03,00,16.70
2008,08,16,03,01,16.60
2008,08,16,03,02,16.60
2008,08,16,03,03,16.60
2008,08,16,03,04,16.50
2008,08,16,03,05,16.40
2008,08,16,03,06,16.40
2008,08,16,03,07,16.40
2008,08,16,03,08,16.40
2008,08,16,03,09,16.40
2008,08,16,03,10,16.40
2008,08,16,03,11,16.40
2008,08,16,03,12,16.40
2008,08,16,03,13,16.40
2008,08,16,03,14,16.40
2008,08,16,03,15,16.40
2008,08,16,03,16,16.40
2008,08,16,03,17,16.30
2008,08,16,03,18,16.30
2008,08,16,03,19,16.30
2008,08,16,03,20,16.30
2008,08,16,03,21,16.30
2008,08,16,03,22,16.20
2008,08,16,03,23,16.20
2008,08,16,03,24,16.10
2008,08,16,03,25,16.10
2008,08,16,03,26,16.10
2008,08,16,03,27,16.10
2008,08,16,03,28,16.00
2008,08,16,03,29,15.90
2008,08,16,03,30,15.90
2008,08,16,03,31,15.80
2008,08,16,03,32,15.80
2008,08,16,03,33,15.80
2008,08,16,03,34,15.80
2008,08,16,03,35,15.80
2008,08,16,03,36,15.80
2008,08,16,03,37,15.80
2008,08,16,03,38,15.80
2008,08,16,03,39,15.80
2008,08,16,03,40,15.70
2008,08,16,03,41,15.70
2008,08,16,03,42,15.70
2008,08,16,03,43,15.70
2008,08,16,03,44,15.70
2008,08,16,03,45,15.70
2008,08,16,03,46,15.70
2008,08,16,03,47,15.70
2008,08,16,03,48,15.70
2008,08,16,03,49,15.70
2008,08,16,03,50,15.70
2008,08,16,03,51,15.70
2008,08,16,03,52,15.70
2008,08,16,03,53,15.70
2008,08,16,03,54,15.70
2008,08,16,03,55,15.70
2008,08,16,03,56,15.70
2008,08,16,03,57,15.70
2008,08,16,03,58,15.80
2008,08,16,03,59,15.80
2008,08,16,04,00,15.80
2008,08,16,04,01,15.80
2008,08,16,04,02,15.80
2008,08,16,04,03,15.90
2008,08,16,04,04,15.90
2008,08,16,04,05,15.90
2008,08,16,04,06,15.90
2008,08,16,04,07,16.00
2008,08,16,04,08,16.10
2008,08,16,04,09,16.10
2008,08,16,04,10,16.10
2008,08,16,04,11,16.10
2008,08,16,04,12,16.10
2008,08,16,04,13,16.10
2008,08,16,04,14,16.10
2008,08,16,04,15,16.10
2008,08,16,04,16,16.20
2008,08,16,04,17,16.20
2008,08,16,04,18,16.20
2008,08,16,04,19,16.20
2008,08,16,04,20,16.20
2008,08,16,04,21,16.20
2008,08,16,04,22,16.10
2008,08,16,04,23,16.10
2008,08,16,04,24,16.10
2008,08,16,04,25,16.10
2008,08,16,04,26,16.10
2008,08,16,04,27,16.10
2008,08,16,04,28,16.10
2008,08,16,04,29,16.10
2008,08,16,04,30,16.10
2008,08,16,04,31,16.10
2008,08,16,04,32,16.10
2008,08,16,04,33,16.10
2008,08,16,04,34,15.90
2008,08,16,04,35,15.90
2008,08,16,04,36,15.90
2008,08,16,04,37,15.90
2008,08,16,04,38,15.90
2008,08,16,04,39,16.00
2008,08,16,04,40,16.10
2008,08,16,04,41,16.10
2008,08,16,04,42,16.10
2008,08,16,04,43,15.90
2008,08,16,04,44,15.90
2008,08,16,04,45,15.90
2008,08,16,04,46,15.90
2008,08,16,04,47,15.90
2008,08,16,04,48,15.90
2008,08,16,04,49,15.90
2008,08,16,04,50,15.90
2008,08,16,04,51,15.90
2008,08,16,04,52,15.90
2008,08,16,04,53,15.80
2008,08,16,04,54,15.80
2008,08,16,04,55,15.80
2008,08,16,04,56,15.80
2008,08,16,04,57,15.80
2008,08,16,04,58,15.80
2008,08,16,04,59,15.80
2008,08,16,05,00,15.70
2008,08,16,05,01,15.70
2008,08,16,05,02,15.70
2008,08,16,05,03,15.70
2008,08,16,05,04,15.60
2008,08,16,05,05,15.60
2008,08,16,05,06,15.50
2008,08,16,05,07,15.50
2008,08,16,05,08,15.50
2008,08,16,05,09,15.50
2008,08,16,05,10,15.40
2008,08,16,05,11,15.40
2008,08,16,05,12,15.40
2008,08,16,05,13,15.30
2008,08,16,05,14,15.30
2008,08,16,05,15,15.30
2008,08,16,05,16,15.30
2008,08,16,05,17,15.30
2008,08,16,05,18,15.30
2008,08,16,05,19,15.30
2008,08,16,05,20,15.30
2008,08,16,05,21,15.30
2008,08,16,05,22,15.30
2008,08,16,05,23,15.20
2008,08,16,05,24,15.20
2008,08,16,05,25,15.20
2008,08,16,05,26,15.20
2008,08,16,05,27,15.20
2008,08,16,05,28,15.20
2008,08,16,05,29,15.20
2008,08,16,05,30,15.10
2008,08,16,05,31,15.10
2008,08,16,05,32,15.10
2008,08,16,05,33,15.10
2008,08,16,05,34,15.10
2008,08,16,05,35,15.00
2008,08,16,05,36,15.00
2008,08,16,05,37,15.00
2008,08,16,05,38,15.00
2008,08,16,05,39,15.00
2008,08,16,05,40,15.00
2008,08,16,05,41,14.90
2008,08,16,05,42,14.90
2008,08,16,05,43,14.90
2008,08,16,05,44,14.90
2008,08,16,05,45,14.90
2008,08,16,05,46,14.80
2008,08,16,05,47,14.80
2008,08,16,05,48,14.80
2008,08,16,05,49,14.80
2008,08,16,05,50,14.80
2008,08,16,05,51,14.80
2008,08,16,05,52,14.80
2008,08,16,05,53,14.80
2008,08,16,05,54,14.80
2008,08,16,05,55,14.80
2008,08,16,05,56,14.70
2008,08,16,05,57,14.70
2008,08,16,05,58,14.70
2008,08,16,05,59,14.70
2008,08,16,06,00,14.70
2008,08,16,06,01,14.70
2008,08,16,06,02,14.70
2008,08,16,06,03,14.70
2008,08,16,06,04,14.60
2008,08,16,06,05,14.60
2008,08,16,06,06,14.60
2008,08,16,06,07,14.60
2008,08,16,06,08,14.60
2008,08,16,06,09,14.60
2008,08,16,06,10,14.60
2008,08,16,06,11,14.60
2008,08,16,06,12,14.60
2008,08,16,06,13,14.60
2008,08,16,06,14,14.60
2008,08,16,06,15,14.60
2008,08,16,06,16,14.60
2008,08,16,06,17,14.50
2008,08,16,06,18,14.50
2008,08,16,06,19,14.50
2008,08,16,06,20,14.50
2008,08,16,06,21,14.50
2008,08,16,06,22,14.50
2008,08,16,06,23,14.50
2008,08,16,06,24,14.50
2008,08,16,06,25,14.40
2008,08,16,06,26,14.40
2008,08,16,06,27,14.40
2008,08,16,06,28,14.40
2008,08,16,06,29,14.40
2008,08,16,06,30,14.40
2008,08,16,06,31,14.40
2008,08,16,06,32,14.40
2008,08,16,06,33,14.40
2008,08,16,06,34,14.40
2008,08,16,06,35,14.40
2008,08,16,06,36,14.40
2008,08,16,06,37,14.40
2008,08,16,06,38,14.40
2008,08,16,06,39,14.40
2008,08,16,06,40,14.40
2008,08,16,06,41,14.40
2008,08,16,06,42,14.40
2008,08,16,06,43,14.50
2008,08,16,06,44,14.50
2008,08,16,06,45,14.50
2008,08,16,06,46,14.50
2008,08,16,06,47,14.50
2008,08,16,06,48,14.50
2008,08,16,06,49,14.60
2008,08,16,06,50,14.60
2008,08,16,06,51,14.60
2008,08,16,06,52,14.60
2008,08,16,06,53,14.60
2008,08,16,06,54,14.70
2008,08,16,06,55,14.70
2008,08,16,06,56,14.70
2008,08,16,06,57,14.70
2008,08,16,06,58,14.70
2008,08,16,06,59,14.70
2008,08,16,07,00,14.80
2008,08,16,07,01,14.80
2008,08,16,07,02,14.80
2008,08,16,07,03,14.90
2008,08,16,07,04,14.90
2008,08,16,07,05,15.00
2008,08,16,07,06,15.10
2008,08,16,07,07,15.20
2008,08,16,07,08,15.30
2008,08,16,07,09,15.30
2008,08,16,07,10,15.40
2008,08,16,07,11,15.40
2008,08,16,07,12,15.50
2008,08,16,07,13,15.50
2008,08,16,07,14,15.60
2008,08,16,07,15,15.60
2008,08,16,07,16,15.70
2008,08,16,07,17,15.80
2008,08,16,07,18,16.00
2008,08,16,07,19,16.10
2008,08,16,07,20,16.20
2008,08,16,07,21,16.30
2008,08,16,07,22,16.40
2008,08,16,07,23,16.40
2008,08,16,07,24,16.60
2008,08,16,07,25,16.70
2008,08,16,07,26,16.80
2008,08,16,07,27,16.80
2008,08,16,07,28,16.90
2008,08,16,07,29,17.00
2008,08,16,07,30,17.10
2008,08,16,07,31,17.20
2008,08,16,07,32,17.20
2008,08,16,07,33,17.30
2008,08,16,07,34,17.30
2008,08,16,07,35,17.30
2008,08,16,07,36,17.30
2008,08,16,07,37,17.30
2008,08,16,07,38,17.30
2008,08,16,07,39,17.30
2008,08,16,07,40,17.30
2008,08,16,07,41,17.40
2008,08,16,07,42,17.40
2008,08,16,07,43,17.50
2008,08,16,07,44,17.60
2008,08,16,07,45,17.80
2008,08,16,07,46,17.90
2008,08,16,07,47,18.10
2008,08,16,07,48,18.20
2008,08,16,07,49,18.40
2008,08,16,07,50,18.50
2008,08,16,07,51,18.60
2008,08,16,07,52,18.70
2008,08,16,07,53,18.70
2008,08,16,07,54,18.80
2008,08,16,07,55,18.90
2008,08,16,07,56,19.00
2008,08,16,07,57,19.10
2008,08,16,07,58,19.30
2008,08,16,07,59,19.40
2008,08,16,08,00,19.60
2008,08,16,08,01,19.70
2008,08,16,08,02,19.80
2008,08,16,08,03,19.80
2008,08,16,08,04,19.80
2008,08,16,08,05,19.80
2008,08,16,08,06,19.90
2008,08,16,08,07,19.90
2008,08,16,08,08,19.90
2008,08,16,08,09,20.00
2008,08,16,08,10,20.20
2008,08,16,08,11,20.20
2008,08,16,08,12,20.20
2008,08,16,08,13,20.30
2008,08,16,08,14,20.40
2008,08,16,08,15,20.40
2008,08,16,08,16,20.30
2008,08,16,08,17,20.30
2008,08,16,08,18,20.20
2008,08,16,08,19,20.20
2008,08,16,08,20,20.20
2008,08,16,08,21,20.20
2008,08,16,08,22,20.20
2008,08,16,08,23,20.20
2008,08,16,08,24,20.20
2008,08,16,08,25,20.20
2008,08,16,08,26,20.20
2008,08,16,08,27,20.20
2008,08,16,08,28,20.30
2008,08,16,08,29,20.30
2008,08,16,08,30,20.40
2008,08,16,08,31,20.40
2008,08,16,08,32,20.50
2008,08,16,08,33,20.50
2008,08,16,08,34,20.50
2008,08,16,08,35,20.60
2008,08,16,08,36,20.60
2008,08,16,08,37,20.70
2008,08,16,08,38,20.70
2008,08,16,08,39,20.70
2008,08,16,08,40,20.80
2008,08,16,08,41,20.80
2008,08,16,08,42,20.80
2008,08,16,08,43,20.90
2008,08,16,08,44,20.90
2008,08,16,08,45,20.90
2008,08,16,08,46,20.90
2008,08,16,08,47,20.90
2008,08,16,08,48,20.90
2008,08,16,08,49,20.80
2008,08,16,08,50,20.80
2008,08,16,08,51,20.70
2008,08,16,08,52,20.60
2008,08,16,08,53,20.60
2008,08,16,08,54,20.60
2008,08,16,08,55,20.60
2008,08,16,08,56,20.60
2008,08,16,08,57,20.60
2008,08,16,08,58,20.60
2008,08,16,08,59,20.60
2008,08,16,09,00,20.70
2008,08,16,09,01,20.70
2008,08,16,09,02,20.70
2008,08,16,09,03,20.80
2008,08,16,09,04,20.80
2008,08,16,09,05,20.90
2008,08,16,09,06,20.90
2008,08,16,09,07,20.90
2008,08,16,09,08,20.90
2008,08,16,09,09,20.90
2008,08,16,09,10,20.90
2008,08,16,09,11,20.90
2008,08,16,09,12,21.00
2008,08,16,09,13,21.00
2008,08,16,09,14,21.00
2008,08,16,09,15,21.00
2008,08,16,09,16,20.90
2008,08,16,09,17,20.90
2008,08,16,09,18,20.90
2008,08,16,09,19,20.90
2008,08,16,09,20,20.90
2008,08,16,09,21,21.00
2008,08,16,09,22,21.00
2008,08,16,09,23,20.90
2008,08,16,09,24,20.90
2008,08,16,09,25,20.90
2008,08,16,09,26,20.80
2008,08,16,09,27,20.80
2008,08,16,09,28,20.80
2008,08,16,09,29,20.80
2008,08,16,09,30,20.80
2008,08,16,09,31,20.80
2008,08,16,09,32,20.80
2008,08,16,09,33,20.90
2008,08,16,09,34,20.90
2008,08,16,09,35,20.90
2008,08,16,09,36,21.00
2008,08,16,09,37,21.10
2008,08,16,09,38,21.20
2008,08,16,09,39,21.30
2008,08,16,09,40,21.30
2008,08,16,09,41,21.40
2008,08,16,09,42,21.60
2008,08,16,09,43,21.60
2008,08,16,09,44,21.70
2008,08,16,09,45,21.70
2008,08,16,09,46,21.70
2008,08,16,09,47,21.80
2008,08,16,09,48,21.90
2008,08,16,09,49,22.00
2008,08,16,09,50,22.00
2008,08,16,09,51,22.10
2008,08,16,09,52,22.10
2008,08,16,09,53,22.20
2008,08,16,09,54,22.40
2008,08,16,09,55,22.50
2008,08,16,09,56,22.50
2008,08,16,09,57,22.60
2008,08,16,09,58,22.60
2008,08,16,09,59,22.70
2008,08,16,10,00,22.70
2008,08,16,10,01,22.70
2008,08,16,10,02,22.80
2008,08,16,10,03,22.80
2008,08,16,10,04,22.80
2008,08,16,10,05,22.90
2008,08,16,10,06,22.90
2008,08,16,10,07,22.90
2008,08,16,10,08,23.00
2008,08,16,10,09,23.10
2008,08,16,10,10,23.10
2008,08,16,10,11,23.20
2008,08,16,10,12,23.20
2008,08,16,10,13,23.10
2008,08,16,10,14,23.10
2008,08,16,10,15,23.10
2008,08,16,10,16,23.10
2008,08,16,10,17,23.10
2008,08,16,10,18,23.20
2008,08,16,10,19,23.20
2008,08,16,10,20,23.30
2008,08,16,10,21,23.30
2008,08,16,10,22,23.30
2008,08,16,10,23,23.20
2008,08,16,10,24,23.20
2008,08,16,10,25,23.20
2008,08,16,10,26,23.20
2008,08,16,10,27,23.20
2008,08,16,10,28,23.20
2008,08,16,10,29,23.10
2008,08,16,10,30,23.10
2008,08,16,10,31,23.10
2008,08,16,10,32,23.10
2008,08,16,10,33,23.10
2008,08,16,10,34,23.20
2008,08,16,10,35,23.20
2008,08,16,10,36,23.20
2008,08,16,10,37,23.30
2008,08,16,10,38,23.30
2008,08,16,10,39,23.30
2008,08,16,10,40,23.30
2008,08,16,10,41,23.30
2008,08,16,10,42,23.30
2008,08,16,10,43,23.30
2008,08,16,10,44,23.30
2008,08,16,10,45,23.30
2008,08,16,10,46,23.30
2008,08,16,10,47,23.30
2008,08,16,10,48,23.30
2008,08,16,10,49,23.30
2008,08,16,10,50,23.40
2008,08,16,10,51,23.40
2008,08,16,10,52,23.40
2008,08,16,10,53,23.40
2008,08,16,10,54,23.40
2008,08,16,10,55,23.40
2008,08,16,10,56,23.30
2008,08,16,10,57,23.30
2008,08,16,10,58,23.30
2008,08,16,10,59,23.40
2008,08,16,11,00,23.40
2008,08,16,11,01,23.50
2008,08,16,11,02,23.60
2008,08,16,11,03,23.70
2008,08,16,11,04,23.70
2008,08,16,11,05,23.80
2008,08,16,11,06,23.80
2008,08,16,11,07,23.70
2008,08,16,11,08,23.70
2008,08,16,11,09,23.60
2008,08,16,11,10,23.60
2008,08,16,11,11,23.60
2008,08,16,11,12,23.60
2008,08,16,11,13,23.60
2008,08,16,11,14,23.70
2008,08,16,11,15,23.70
2008,08,16,11,16,23.80
2008,08,16,11,17,23.80
2008,08,16,11,18,23.80
2008,08,16,11,19,23.90
2008,08,16,11,20,23.90
2008,08,16,11,21,24.00
2008,08,16,11,22,24.10
2008,08,16,11,23,24.10
2008,08,16,11,24,24.10
2008,08,16,11,25,24.10
2008,08,16,11,26,24.10
2008,08,16,11,27,24.10
2008,08,16,11,28,24.10
2008,08,16,11,29,24.10
2008,08,16,11,30,24.10
2008,08,16,11,31,24.10
2008,08,16,11,32,24.10
2008,08,16,11,33,24.10
2008,08,16,11,34,24.10
2008,08,16,11,35,24.10
2008,08,16,11,36,24.10
2008,08,16,11,37,24.20
2008,08,16,11,38,24.20
2008,08,16,11,39,24.30
2008,08,16,11,40,24.30
2008,08,16,11,41,24.20
2008,08,16,11,42,24.10
2008,08,16,11,43,24.10
2008,08,16,11,44,24.10
2008,08,16,11,45,24.20
2008,08,16,11,46,24.20
2008,08,16,11,47,24.20
2008,08,16,11,48,24.20
2008,08,16,11,49,24.30
2008,08,16,11,50,24.40
2008,08,16,11,51,24.40
2008,08,16,11,52,24.30
2008,08,16,11,53,24.30
2008,08,16,11,54,24.30
2008,08,16,11,55,24.20
2008,08,16,11,56,24.20
2008,08,16,11,57,24.20
2008,08,16,11,58,24.20
2008,08,16,11,59,24.20
2008,08,16,12,00,24.10
2008,08,16,12,01,24.10
2008,08,16,12,02,24.10
2008,08,16,12,03,24.20
2008,08,16,12,04,24.20
2008,08,16,12,05,24.30
2008,08,16,12,06,24.30
2008,08,16,12,07,24.40
2008,08,16,12,08,24.50
2008,08,16,12,09,24.60
2008,08,16,12,10,24.70
2008,08,16,12,11,24.80
2008,08,16,12,12,24.80
2008,08,16,12,13,24.80
2008,08,16,12,14,24.80
2008,08,16,12,15,24.80
2008,08,16,12,16,24.80
2008,08,16,12,17,24.80
2008,08,16,12,18,24.80
2008,08,16,12,19,24.80
2008,08,16,12,20,24.80
2008,08,16,12,21,24.70
2008,08,16,12,22,24.60
2008,08,16,12,23,24.50
2008,08,16,12,24,24.40
2008,08,16,12,25,24.40
2008,08,16,12,26,24.40
2008,08,16,12,27,24.50
2008,08,16,12,28,24.50
2008,08,16,12,29,24.40
2008,08,16,12,30,24.40
2008,08,16,12,31,24.40
2008,08,16,12,32,24.40
2008,08,16,12,33,24.40
2008,08,16,12,34,24.50
2008,08,16,12,35,24.60
2008,08,16,12,36,24.60
2008,08,16,12,37,24.60
2008,08,16,12,38,24.60
2008,08,16,12,39,24.60
2008,08,16,12,40,24.60
2008,08,16,12,41,24.70
2008,08,16,12,42,24.70
2008,08,16,12,43,24.80
2008,08,16,12,44,24.80
2008,08,16,12,45,24.80
2008,08,16,12,46,24.80
2008,08,16,12,47,24.70
2008,08,16,12,48,24.70
2008,08,16,12,49,24.60
2008,08,16,12,50,24.60
2008,08,16,12,51,24.60
2008,08,16,12,52,24.50
2008,08,16,12,53,24.50
2008,08,16,12,54,24.50
2008,08,16,12,55,24.50
2008,08,16,12,56,24.50
2008,08,16,12,57,24.60
2008,08,16,12,58,24.60
2008,08,16,12,59,24.60
2008,08,16,13,00,24.60
2008,08,16,13,01,24.70
2008,08,16,13,02,24.80
2008,08,16,13,03,24.80
2008,08,16,13,04,24.90
2008,08,16,13,05,25.00
2008,08,16,13,06,25.00
2008,08,16,13,07,25.10
2008,08,16,13,08,25.20
2008,08,16,13,09,25.30
2008,08,16,13,10,25.40
2008,08,16,13,11,25.50
2008,08,16,13,12,25.60
2008,08,16,13,13,25.60
2008,08,16,13,14,25.60
2008,08,16,13,15,25.60
2008,08,16,13,16,25.50
2008,08,16,13,17,25.50
2008,08,16,13,18,25.50
2008,08,16,13,19,25.50
2008,08,16,13,20,25.60
2008,08,16,13,21,25.60
2008,08,16,13,22,25.80
2008,08,16,13,23,25.90
2008,08,16,13,24,25.90
2008,08,16,13,25,25.90
2008,08,16,13,26,25.80
2008,08,16,13,27,25.70
2008,08,16,13,28,25.60
2008,08,16,13,29,25.50
2008,08,16,13,30,25.40
2008,08,16,13,31,25.40
2008,08,16,13,32,25.30
2008,08,16,13,33,25.30
2008,08,16,13,34,25.30
2008,08,16,13,35,25.40
2008,08,16,13,36,25.40
2008,08,16,13,37,25.40
2008,08,16,13,38,25.40
2008,08,16,13,39,25.50
2008,08,16,13,40,25.40
2008,08,16,13,41,25.40
2008,08,16,13,42,25.50
2008,08,16,13,43,25.50
2008,08,16,13,44,25.60
2008,08,16,13,45,25.70
2008,08,16,13,46,25.70
2008,08,16,13,47,25.70
2008,08,16,13,48,25.70
2008,08,16,13,49,25.70
2008,08,16,13,50,25.70
2008,08,16,13,51,25.70
2008,08,16,13,52,25.80
2008,08,16,13,53,25.80
2008,08,16,13,54,25.90
2008,08,16,13,55,25.90
2008,08,16,13,56,26.00
2008,08,16,13,57,26.10
2008,08,16,13,58,26.20
2008,08,16,13,59,26.20
2008,08,16,14,00,26.30
2008,08,16,14,01,26.40
2008,08,16,14,02,26.50
2008,08,16,14,03,26.60
2008,08,16,14,04,26.60
2008,08,16,14,05,26.70
2008,08,16,14,06,26.70
2008,08,16,14,07,26.70
2008,08,16,14,08,26.60
2008,08,16,14,09,26.60
2008,08,16,14,10,26.60
2008,08,16,14,11,26.50
2008,08,16,14,12,26.40
2008,08,16,14,13,26.40
2008,08,16,14,14,26.40
2008,08,16,14,15,26.40
2008,08,16,14,16,26.40
2008,08,16,14,17,26.40
2008,08,16,14,18,26.50
2008,08,16,14,19,26.60
2008,08,16,14,20,26.60
2008,08,16,14,21,26.60
2008,08,16,14,22,26.60
2008,08,16,14,23,26.60
2008,08,16,14,24,26.60
2008,08,16,14,25,26.60
2008,08,16,14,26,26.60
2008,08,16,14,27,26.60
2008,08,16,14,28,26.60
2008,08,16,14,29,26.60
2008,08,16,14,30,26.70
2008,08,16,14,31,26.70
2008,08,16,14,32,26.70
2008,08,16,14,33,26.70
2008,08,16,14,34,26.70
2008,08,16,14,35,26.60
2008,08,16,14,36,26.60
2008,08,16,14,37,26.50
2008,08,16,14,38,26.40
2008,08,16,14,39,26.40
2008,08,16,14,40,26.40
2008,08,16,14,41,26.40
2008,08,16,14,42,26.40
2008,08,16,14,43,26.40
2008,08,16,14,44,26.40
2008,08,16,14,45,26.60
2008,08,16,14,46,26.60
2008,08,16,14,47,26.60
2008,08,16,14,48,26.60
2008,08,16,14,49,26.60
2008,08,16,14,50,26.70
2008,08,16,14,51,26.80
2008,08,16,14,52,26.90
2008,08,16,14,53,26.90
2008,08,16,14,54,26.80
2008,08,16,14,55,26.70
2008,08,16,14,56,26.80
2008,08,16,14,57,26.80
2008,08,16,14,58,26.80
2008,08,16,14,59,26.80
2008,08,16,15,00,26.70
2008,08,16,15,01,26.60
2008,08,16,15,02,26.60
2008,08,16,15,03,26.60
2008,08,16,15,04,26.60
2008,08,16,15,05,26.60
2008,08,16,15,06,26.40
2008,08,16,15,07,26.40
2008,08,16,15,08,26.40
2008,08,16,15,09,26.40
2008,08,16,15,10,26.50
2008,08,16,15,11,26.60
2008,08,16,15,12,26.60
2008,08,16,15,13,26.60
2008,08,16,15,14,26.60
2008,08,16,15,15,26.60
2008,08,16,15,16,26.60
2008,08,16,15,17,26.70
2008,08,16,15,18,26.80
2008,08,16,15,19,26.90
2008,08,16,15,20,27.00
2008,08,16,15,21,27.10
2008,08,16,15,22,27.20
2008,08,16,15,23,27.30
2008,08,16,15,24,27.30
2008,08,16,15,25,27.30
2008,08,16,15,26,27.30
2008,08,16,15,27,27.30
2008,08,16,15,28,27.30
2008,08,16,15,29,27.40
2008,08,16,15,30,27.40
2008,08,16,15,31,27.40
2008,08,16,15,32,27.40
2008,08,16,15,33,27.40
2008,08,16,15,34,27.30
2008,08,16,15,35,27.40
2008,08,16,15,36,27.40
2008,08,16,15,37,27.40
2008,08,16,15,38,27.50
2008,08,16,15,39,27.60
2008,08,16,15,40,27.60
2008,08,16,15,41,27.60
2008,08,16,15,42,27.70
2008,08,16,15,43,27.80
2008,08,16,15,44,27.90
2008,08,16,15,45,28.00
2008,08,16,15,46,28.00
2008,08,16,15,47,28.00
2008,08,16,15,48,28.10
2008,08,16,15,49,28.20
2008,08,16,15,50,28.30
2008,08,16,15,51,28.40
2008,08,16,15,52,28.40
2008,08,16,15,53,28.40
2008,08,16,15,54,28.40
2008,08,16,15,55,28.40
2008,08,16,15,56,28.50
2008,08,16,15,57,28.60
2008,08,16,15,58,28.60
2008,08,16,15,59,28.60
2008,08,16,16,00,28.60
2008,08,16,16,01,28.60
2008,08,16,16,02,28.60
2008,08,16,16,03,28.60
2008,08,16,16,04,28.50
2008,08,16,16,05,28.40
2008,08,16,16,06,28.40
2008,08,16,16,07,28.40
2008,08,16,16,08,28.40
2008,08,16,16,09,28.40
2008,08,16,16,10,28.40
2008,08,16,16,11,28.40
2008,08,16,16,12,28.30
2008,08,16,16,13,28.30
2008,08,16,16,14,28.30
2008,08,16,16,15,28.40
2008,08,16,16,16,28.40
2008,08,16,16,17,28.50
2008,08,16,16,18,28.60
2008,08,16,16,19,28.70
2008,08,16,16,20,28.80
2008,08,16,16,21,28.90
2008,08,16,16,22,29.00
2008,08,16,16,23,29.00
2008,08,16,16,24,28.90
2008,08,16,16,25,28.90
2008,08,16,16,26,28.90
2008,08,16,16,27,28.90
2008,08,16,16,28,28.90
2008,08,16,16,29,28.90
2008,08,16,16,30,29.00
2008,08,16,16,31,29.10
2008,08,16,16,32,29.10
2008,08,16,16,33,29.20
2008,08,16,16,34,29.20
2008,08,16,16,35,29.20
2008,08,16,16,36,29.20
2008,08,16,16,37,29.30
2008,08,16,16,38,29.30
2008,08,16,16,39,29.40
2008,08,16,16,40,29.40
2008,08,16,16,41,29.40
2008,08,16,16,42,29.50
2008,08,16,16,43,29.60
2008,08,16,16,44,29.60
2008,08,16,16,45,29.60
2008,08,16,16,46,29.60
2008,08,16,16,47,29.70
2008,08,16,16,48,29.70
2008,08,16,16,49,29.80
2008,08,16,16,50,29.80
2008,08,16,16,51,29.90
2008,08,16,16,52,29.90
2008,08,16,16,53,29.90
2008,08,16,16,54,29.90
2008,08,16,16,55,29.80
2008,08,16,16,56,29.80
2008,08,16,16,57,29.90
2008,08,16,16,58,30.00
2008,08,16,16,59,30.10
2008,08,16,17,00,30.20
2008,08,16,17,01,30.20
2008,08,16,17,02,30.10
2008,08,16,17,03,30.10
2008,08,16,17,04,30.10
2008,08,16,17,05,30.00
2008,08,16,17,06,29.90
2008,08,16,17,07,29.80
2008,08,16,17,08,29.80
2008,08,16,17,09,29.70
2008,08,16,17,10,29.70
2008,08,16,17,11,29.80
2008,08,16,17,12,29.80
2008,08,16,17,13,29.90
2008,08,16,17,14,29.90
2008,08,16,17,15,29.90
2008,08,16,17,16,29.90
2008,08,16,17,17,30.00
2008,08,16,17,18,30.10
2008,08,16,17,19,30.10